Hourly Weather Suhoreche

Today, 25 January, Monday

Time Temperature Precipitation Wind Pressure Humidity
00:00 -42°C° 0 mm 1 mps 759 mmHg 97%
01:00 -42°C° 0 mm 1 mps 759 mmHg 97%
02:00 -42°C° 0 mm 1 mps 759 mmHg 97%
03:00 -43°C° 0 mm 1 mps 760 mmHg 97%
04:00 -47°C° 0 mm 2 mps 760 mmHg 97%
05:00 -47°C° 0 mm 2 mps 761 mmHg 97%
06:00 -47°C° 0 mm 2 mps 761 mmHg 97%
07:00 -47°C° 0 mm 2 mps 761 mmHg 97%
08:00 -47°C° 0 mm 2 mps 761 mmHg 97%
09:00 -47°C° 0 mm 2 mps 761 mmHg 97%
10:00 -46°C° 0 mm 2 mps 761 mmHg 96%
11:00 -45°C° 0 mm 2 mps 762 mmHg 96%
12:00 -43°C° 0 mm 2 mps 762 mmHg 95%
13:00 -43°C° 0 mm 2 mps 761 mmHg 93%
14:00 -43°C° 0 mm 2 mps 761 mmHg 92%
15:00 -39°C° 0 mm 1 mps 761 mmHg 92%
16:00 -40°C° 0 mm 1 mps 761 mmHg 93%
17:00 -42°C° 0 mm 1 mps 762 mmHg 95%
18:00 -43°C° 0 mm 1 mps 762 mmHg 96%
19:00 -43°C° 0 mm 1 mps 762 mmHg 97%
20:00 -44°C° 0 mm 1 mps 762 mmHg 97%
21:00 -44°C° 0 mm 1 mps 762 mmHg 97%
22:00 -44°C° 0 mm 1 mps 762 mmHg 97%
23:00 -44°C° 0 mm 0 mps 762 mmHg 97%

Tomorrow, 26 January, Tuesday

Time Temperature Precipitation Wind Pressure Humidity
00:00 -44°C° 0 mm 0 mps 762 mmHg 97%
01:00 -44°C° 0 mm 0 mps 762 mmHg 97%
02:00 -44°C° 0 mm 0 mps 762 mmHg 97%
03:00 -44°C° 0 mm 0 mps 762 mmHg 97%
04:00 -44°C° 0 mm 0 mps 762 mmHg 97%
05:00 -44°C° 0 mm 0 mps 762 mmHg 97%
06:00 -44°C° 0 mm 0 mps 762 mmHg 96%
07:00 -44°C° 0 mm 0 mps 762 mmHg 96%
08:00 -44°C° 0 mm 0 mps 762 mmHg 96%
09:00 -44°C° 0 mm 0 mps 762 mmHg 95%
10:00 -42°C° 0 mm 0 mps 762 mmHg 93%
11:00 -40°C° 0 mm 0 mps 763 mmHg 92%
12:00 -38°C° 0 mm 0 mps 763 mmHg 90%
13:00 -37°C° 0 mm 0 mps 763 mmHg 90%
14:00 -38°C° 0 mm 1 mps 763 mmHg 89%
15:00 -38°C° 0 mm 1 mps 763 mmHg 89%
16:00 -39°C° 0 mm 1 mps 763 mmHg 91%
17:00 -41°C° 0 mm 1 mps 763 mmHg 93%
18:00 -42°C° 0 mm 1 mps 764 mmHg 95%
19:00 -43°C° 0 mm 1 mps 764 mmHg 95%
20:00 -43°C° 0 mm 1 mps 764 mmHg 95%
21:00 -43°C° 0 mm 1 mps 764 mmHg 95%
22:00 -44°C° 0 mm 1 mps 764 mmHg 95%
23:00 -44°C° 0 mm 1 mps 764 mmHg 95%

Day after tomorrow, 27 January, Wednesday

Time Temperature Precipitation Wind Pressure Humidity
00:00 -44°C° 0 mm 1 mps 764 mmHg 95%
01:00 -44°C° 0 mm 1 mps 764 mmHg 96%
02:00 -44°C° 0 mm 1 mps 764 mmHg 96%
03:00 -44°C° 0 mm 1 mps 765 mmHg 96%
04:00 -43°C° 0 mm 1 mps 765 mmHg 96%
05:00 -43°C° 0 mm 1 mps 765 mmHg 96%
06:00 -43°C° 0 mm 1 mps 765 mmHg 96%
07:00 -43°C° 0 mm 1 mps 765 mmHg 96%
08:00 -46°C° 0 mm 2 mps 765 mmHg 96%
09:00 -46°C° 0 mm 2 mps 765 mmHg 95%
10:00 -42°C° 0 mm 2 mps 765 mmHg 94%
11:00 -40°C° 0 mm 2 mps 764 mmHg 93%
12:00 -37°C° 0 mm 2 mps 764 mmHg 91%
13:00 -36°C° 0 mm 2 mps 764 mmHg 91%
14:00 -35°C° 0 mm 2 mps 763 mmHg 91%
15:00 -34°C° 0 mm 2 mps 763 mmHg 90%
16:00 -34°C° 0 mm 2 mps 762 mmHg 90%
17:00 -35°C° 0 mm 3 mps 762 mmHg 89%
18:00 -35°C° 0 mm 3 mps 761 mmHg 89%
19:00 -34°C° 0 mm 3 mps 761 mmHg 88%
20:00 -33°C° 0 mm 3 mps 760 mmHg 87%
21:00 -32°C° 0 mm 3 mps 759 mmHg 86%
22:00 -32°C° 0 mm 4 mps 758 mmHg 84%
23:00 -31°C° 0 mm 4 mps 757 mmHg 82%

28 January, Thursday

Time Temperature Precipitation Wind Pressure Humidity
00:00 -29°C° 0 mm 4 mps 757 mmHg 80%
01:00 -27°C° 0.1 mm 4 mps 756 mmHg 85%
02:00 -27°C° 0.1 mm 5 mps 755 mmHg 90%
03:00 -26°C° 0.1 mm 5 mps 754 mmHg 95%
04:00 -25°C° 0.3 mm 5 mps 753 mmHg 95%
05:00 -24°C° 0.3 mm 6 mps 753 mmHg 94%
06:00 -23°C° 0.3 mm 6 mps 752 mmHg 94%
07:00 -23°C° 0.4 mm 6 mps 752 mmHg 94%
08:00 -22°C° 0.4 mm 6 mps 751 mmHg 94%
09:00 -22°C° 0.4 mm 6 mps 751 mmHg 94%
10:00 -20°C° 0.2 mm 5 mps 751 mmHg 93%
11:00 -19°C° 0.2 mm 5 mps 751 mmHg 93%
12:00 -18°C° 0.2 mm 5 mps 751 mmHg 92%
13:00 -17°C° 0.1 mm 5 mps 751 mmHg 92%
14:00 -17°C° 0.1 mm 5 mps 751 mmHg 92%
15:00 -15°C° 0.1 mm 4 mps 751 mmHg 91%
16:00 -15°C° 0.1 mm 4 mps 751 mmHg 92%
17:00 -15°C° 0.1 mm 4 mps 751 mmHg 92%
18:00 -15°C° 0.1 mm 4 mps 752 mmHg 92%
19:00 -14°C° 0.1 mm 4 mps 751 mmHg 92%
20:00 -14°C° 0.1 mm 4 mps 751 mmHg 92%
21:00 -12°C° 0.1 mm 4 mps 751 mmHg 92%
22:00 -13°C° 0 mm 5 mps 751 mmHg 92%
23:00 -13°C° 0 mm 5 mps 751 mmHg 92%

29 January, Friday

Time Temperature Precipitation Wind Pressure Humidity
00:00 -13°C° 0 mm 5 mps 750 mmHg 91%

30 January, Saturday

Time Temperature Precipitation Wind Pressure Humidity
Show more